Flag for Belgium Weather past 2 weeks in Liège, Belgium

Now
32 °F

Ice fog.


Feels Like: 25 °F
Forecast: 31 / 36 °F
Wind: 8 mph from Southwest

Location: Bierset

Current Time: Feb 1, 2015 at 5:36:18 AM

Latest Report: Feb 1, 2015 at 4:50 AM


Visibility: 2 mi

Pressure: 29.15 "Hg

Humidity: 93%

Dew point: 30 °F

Location of LiègeLocation

Historic Weather in Liège — Graph

°F

Liège temperature yesterday

Maximum temperature yesterday: 36 °F (at 1:50 PM)
Minimum temperature yesterday: 30 °F (at 11:50 PM)
Average temperature yesterday: 33 °F

Past Weeks' High & Low Weather Summary

 TemperatureHumidityPressure
High43 °F (Jan 26, 4:50 PM)100% (Jan 19, 6:20 PM)30.45 "Hg (Jan 19, 6:20 PM)
Low28 °F (Jan 21, 12:50 AM)61% (Jan 18, 2:50 PM)28.74 "Hg (Jan 29, 9:20 PM)
Average34 °F86%29.82 "Hg
* Reported Jan 17 4:20 AM — Feb 1 4:20 AM, Liège, Weather by CustomWeather, © 2014

Note: Actual official high and low records may vary slightly from our data, if they occured in-between our weather recording intervals... More about our weather records

Advertising

Liège weather history for previous 24 hours

 ConditionsComfort  
Time TempWeatherWind HumidityBarometerVisibility
4:20 AM
Feb 1
32 °FIce fog.9 mph93%29.15 "Hg2 mi
3:50 AM32 °FIce fog.10 mph93%29.15 "Hg2 mi
3:20 AM32 °FIce fog.9 mph93%29.15 "Hg2 mi
2:50 AM32 °FIce fog.8 mph93%29.15 "Hg2 mi
2:20 AM32 °FIce fog.9 mph93%29.15 "Hg3 mi
1:50 AM32 °FIce fog.9 mph93%29.15 "Hg3 mi
1:20 AM32 °FIce fog.6 mph93%29.15 "Hg3 mi
12:50 AM32 °FPassing clouds.7 mph93%29.15 "Hg4 mi
12:20 AM30 °FPassing clouds.7 mph93%29.12 "Hg5 mi
11:50 PM
Jan 31
30 °FPassing clouds.6 mph93%29.12 "Hg5 mi
11:20 PM32 °FPassing clouds.6 mph93%29.12 "HgN/A
10:50 PM34 °FPassing clouds.7 mph87%29.12 "HgN/A
10:20 PM34 °FPassing clouds.6 mph87%29.12 "HgN/A
9:50 PM34 °FPassing clouds.6 mph87%29.12 "HgN/A
9:20 PM34 °FPassing clouds.5 mph87%29.12 "HgN/A
8:50 PM34 °FPassing clouds.5 mph87%29.09 "HgN/A
8:20 PM34 °FPassing clouds.2 mph87%29.09 "HgN/A
7:50 PM34 °FPassing clouds.1 mph87%29.09 "HgN/A
7:20 PM34 °FPassing clouds.2 mph87%29.06 "HgN/A
6:50 PM34 °FLight rain. Partly cloudy.5 mph87%29.06 "Hg3 mi
6:20 PM34 °FPassing clouds.2 mph87%29.06 "HgN/A
5:50 PM34 °FPassing clouds.6 mph87%29.06 "HgN/A
5:20 PM34 °FPartly sunny.6 mph87%29.03 "HgN/A
4:50 PM36 °FPassing clouds.7 mph81%29.03 "HgN/A
4:20 PM36 °FScattered clouds.8 mph81%29.03 "HgN/A
3:50 PM36 °FPartly sunny.7 mph81%29.03 "HgN/A
3:20 PM36 °FPartly sunny.9 mph81%29.03 "HgN/A
2:50 PM36 °FPartly sunny.10 mph81%29.03 "HgN/A
2:20 PM36 °FPartly sunny.10 mph81%29.00 "HgN/A
1:50 PM36 °FPartly sunny.8 mph81%29.00 "HgN/A
1:20 PM34 °FPartly sunny.14 mph87%29.00 "HgN/A
12:50 PM34 °FPartly sunny.12 mph87%29.00 "HgN/A
12:20 PM34 °FPartly sunny.13 mph87%29.00 "HgN/A
11:50 AM34 °FPartly sunny.13 mph87%29.00 "HgN/A
11:20 AM34 °FScattered clouds.10 mph87%29.00 "Hg5 mi
10:50 AM34 °FScattered clouds.10 mph87%29.00 "Hg4 mi
10:20 AM34 °FScattered clouds.7 mph81%29.00 "Hg4 mi
9:50 AM32 °FPassing clouds.9 mph87%28.97 "Hg4 mi
9:20 AM32 °FScattered clouds.9 mph87%28.97 "Hg4 mi
8:50 AM32 °FIce fog.10 mph87%28.97 "Hg3 mi
8:20 AM32 °FIce fog.12 mph87%28.97 "Hg3 mi
7:50 AM32 °FIce fog.10 mph87%28.97 "Hg3 mi
7:20 AM32 °FPassing clouds.10 mph87%28.94 "Hg5 mi
6:50 AM32 °FPassing clouds.10 mph87%28.94 "Hg5 mi
6:20 AM32 °FPassing clouds.12 mph87%28.94 "HgN/A
5:50 AM32 °FPassing clouds.13 mph87%28.94 "Hg6 mi
5:20 AM32 °FPassing clouds.12 mph87%28.94 "Hg5 mi
Weather by CustomWeather, © 2014

See weather overviewHow to use our weather pages